Cordova, AK

7:35 PM AKDT on July 27, 2016 (GMT -0800)
Cordova-Smith

Weather History for PACV - January, 2013

Change the Weather History Date:

Saturday, January 5, 2013

  Actual Average Record
Temperature  
Mean Temperature 38 °F -  
Max Temperature 41 °F 28 °F 47 °F (1953)
Min Temperature 36 °F 14 °F -18 °F (1965)
Degree Days  
Heating Degree Days 26    
Moisture  
Dew Point 32 °F    
Average Humidity 75    
Maximum Humidity 89    
Minimum Humidity 55    
Precipitation  
Precipitation 0.18 in - - ()
Sea Level Pressure  
Sea Level Pressure 29.53 in    
Wind  
Wind Speed 6 mph (ESE)    
Max Wind Speed 16 mph    
Max Gust Speed 29 mph    
Visibility 10 miles    
Events Rain    
Averages and records for this station are not official NWS values.
T = Trace of Precipitation, MM = Missing Value Source: NWS Daily Summary

Daily Weather History Graph

Daily Weather History Graph

Search for Another Location

Airport or City:

Trip Planner

Search our weather history database for the weather conditions in past years. The results will help you decide how hot, cold, wet, or windy it might be!

Date:

Astronomy

Jan. 05, 2013 Rise Set
Actual Time 9:45 AM AKST 3:49 PM AKST
Civil Twilight 8:48 AM AKST 4:47 PM AKST
Nautical Twilight 7:51 AM AKST 5:43 PM AKST
Astronomical Twilight 6:59 AM AKST 6:35 PM AKST
Moon 2:02 AM AKST (1/5) 11:37 AM AKST (1/5)
Length of Visible Light 7h 58m
Length of Day
6h 04m
Last Quarter, 42% of the Moon is Illuminated
Jan 5
Last Quarter
Jan 11
New
Jan 18
First Quarter
Jan 26
Full
Feb 3
Last Quarter

Hourly Weather History & Observations

Time (AKST) Temp. Windchill Dew Point Humidity Pressure Visibility Wind Dir Wind Speed Gust Speed Precip Events Conditions
12:53 AM 41.0 °F 39.0 °F 26.1 °F 55% 29.78 in 10.0 mi ESE 3.5 mph - N/A   Overcast
1:53 AM 41.0 °F 36.4 °F 27.0 °F 57% 29.76 in 10.0 mi East 6.9 mph - N/A   Overcast
3:53 AM 37.9 °F - 27.0 °F 65% 29.71 in 10.0 mi Calm Calm - N/A   Overcast
4:53 AM 36.0 °F 33.3 °F 28.9 °F 76% 29.68 in 10.0 mi Variable 3.5 mph - N/A   Overcast
5:53 AM 39.0 °F - 28.0 °F 65% 29.64 in 10.0 mi Calm Calm - N/A   Overcast
6:53 AM 37.9 °F 35.5 °F 28.9 °F 70% 29.62 in 10.0 mi NNW 3.5 mph - N/A   Overcast
7:53 AM 39.9 °F 35.8 °F 30.0 °F 68% 29.60 in 10.0 mi Variable 5.8 mph - N/A   Overcast
8:53 AM 39.0 °F - 32.0 °F 76% 29.58 in 10.0 mi Calm Calm - 0.00 in Rain Light Rain
9:53 AM 41.0 °F 35.2 °F 33.1 °F 73% 29.56 in 10.0 mi ESE 9.2 mph 19.6 mph 0.00 in Rain Light Rain
10:53 AM 41.0 °F 37.1 °F 33.1 °F 73% 29.54 in 10.0 mi East 5.8 mph - 0.00 in Rain Light Rain
11:53 AM 41.0 °F 36.4 °F 33.1 °F 73% 29.52 in 10.0 mi ESE 6.9 mph 17.3 mph 0.01 in Rain Light Rain
12:53 PM 41.0 °F 35.2 °F 32.0 °F 70% 29.50 in 10.0 mi ESE 9.2 mph 16.1 mph 0.00 in Rain Light Rain
1:53 PM 41.0 °F 35.2 °F 33.1 °F 73% 29.49 in 10.0 mi ESE 9.2 mph - 0.00 in Rain Light Rain
2:53 PM 39.9 °F 36.7 °F 34.0 °F 79% 29.46 in 10.0 mi ESE 4.6 mph - 0.00 in   Overcast
3:53 PM 39.9 °F 34.5 °F 34.0 °F 79% 29.44 in 10.0 mi ESE 8.1 mph - 0.00 in Rain Light Rain
4:53 PM 39.9 °F 35.1 °F 34.0 °F 79% 29.43 in 10.0 mi ESE 6.9 mph - 0.01 in Rain Light Rain
5:53 PM 39.9 °F 32.9 °F 34.0 °F 79% 29.41 in 10.0 mi ESE 11.5 mph 19.6 mph 0.01 in Rain Light Rain
6:16 PM 39.2 °F 31.6 °F 33.8 °F 81% 29.39 in 10.0 mi ESE 12.7 mph 20.7 mph 0.01 in Rain Light Rain
6:53 PM 39.9 °F 36.7 °F 34.0 °F 79% 29.39 in 10.0 mi East 4.6 mph - 0.03 in Rain Light Rain
7:53 PM 39.9 °F 31.4 °F 34.0 °F 79% 29.38 in 10.0 mi ESE 16.1 mph 28.8 mph 0.01 in Rain Light Rain
8:53 PM 37.9 °F 29.6 °F 33.1 °F 83% 29.43 in 10.0 mi ESE 13.8 mph 28.8 mph 0.02 in Rain Light Rain
9:53 PM 37.0 °F 31.0 °F 34.0 °F 89% 29.47 in 10.0 mi East 8.1 mph - 0.04 in Rain Light Rain
10:53 PM 37.9 °F 32.1 °F 33.1 °F 83% 29.48 in 10.0 mi ESE 8.1 mph 17.3 mph 0.05 in   Overcast
11:53 PM 37.0 °F 32.4 °F 33.1 °F 86% 29.49 in 10.0 mi ESE 5.8 mph - 0.00 in Rain Light Rain